Regional Weather Roundup
Issued by NWS

Home | Current Version | Previous Version | Graphics & Text | Print | Product List | Glossary On
Versions: 1 2 3 4 5 6 7 8 9 10 11 12 13 14 15 16 17 18 19 20 21 22 23 24 25 26 27 28 29 30 31 32 33 34 35 36 37 38 39 40 41 42 43 44 45 46 47 48 49 50
000
ASUS43 KLMK 172302
RWRKY
KENTUCKY REGIONAL WEATHER ROUNDUP
NATIONAL WEATHER SERVICE LOUISVILLE KY
600 PM EST FRI NOV 17 2017

NOTE "FAIR" INDICATES FEW OR NO CLOUDS BELOW 12,000 FEET
WITH NO SIGNIFICANT WEATHER AND/OR OBSTRUCTIONS TO VISIBILITY.

KYZ001>023-026-027-061>063-070>075-180000-
WESTERN AND SOUTH CENTRAL KENTUCKY

CITY           SKY/WX    TMP DP  RH WIND       PRES   REMARKS
PADUCAH        CLOUDY    60  45  57 SE13      29.82F
HENDERSON      MOCLDY    50  43  77 SE8       29.88F
OWENSBORO      CLOUDY    52  40  63 SE12      29.91F
HOPKINSVILLE   CLOUDY    61  36  39 SE6       29.91F
BOWLING GREEN  CLOUDY    52  40  63 SE3       29.96F
GLASGOW        NOT AVBL
$$

KYZ024-025-028>034-038-045-046-053-180000-
NORTH CENTRAL KENTUCKY

CITY           SKY/WX    TMP DP  RH WIND       PRES   REMARKS
LOUISVILLE/SDF CLOUDY    50  38  63 E5        29.97F
LOUISVILLE/LOU CLOUDY    50  38  63 CALM      29.98F
FORT KNOX      CLOUDY    50  37  61 SE7       29.94F
$$

KYZ035>037-039>044-047>052-055>060-089>105-180000-
NORTHEAST KENTUCKY

CITY           SKY/WX    TMP DP  RH WIND       PRES   REMARKS
LEXINGTON      CLEAR     49  35  58 SE5       29.99F
COVINGTON      CLOUDY    44  35  70 S9        29.97F
FRANKFORT      CLOUDY    49  35  58 SE3       29.97F
$$

KYZ054-064>069-076>088-106>120-180000-
SOUTHEAST KENTUCKY

CITY           SKY/WX    TMP DP  RH WIND       PRES   REMARKS
JACKSON        CLEAR     51  27  39 CALM      30.01F
LONDON         CLEAR     52  34  50 SE3       30.00F
SOMERSET       NOT AVBL
MIDDLESBORO    CLEAR     49  37  63 CALM      30.04F
MONTICELLO     CLEAR     56  38  50 E8        30.01F
$$





USA.gov is the U.S. government's official web portal to all federal, state and local government web resources and services.